Change the Weather History Date:

Wednesday, December 12, 2012

  Actual Average Record
Temperature  
Mean Temperature 54 °F -  
Max Temperature 62 °F 61 °F 69 °F (1996)
Min Temperature 46 °F 46 °F 41 °F (2003)
Degree Days  
Heating Degree Days 11    
Growing Degree Days 4 (Base 50)    
Moisture  
Dew Point 50 °F    
Average Humidity 87    
Maximum Humidity 94    
Minimum Humidity 66    
Precipitation  
Precipitation 0.00 in 0.16 in - ()
Sea Level Pressure  
Sea Level Pressure 30.01 in    
Wind  
Wind Speed 3 mph ()    
Max Wind Speed 6 mph    
Max Gust Speed -    
Visibility 4.4 miles    
Events      
Averages and records for this station are not official NWS values.
T = Trace of Precipitation, MM = Missing Value Source: Averaged Metar Reports

Daily Weather History Graph

Daily Weather History Graph

Search for Another Location

Airport or City:

Trip Planner

Search our weather history database for the weather conditions in past years. The results will help you decide how hot, cold, wet, or windy it might be!

Date:

Astronomy

Dec. 12, 2012 Rise Set
Actual Time 7:24 AM WET 5:10 PM WET
Civil Twilight 6:55 AM WET 5:39 PM WET
Nautical Twilight 6:23 AM WET 6:11 PM WET
Astronomical Twilight 5:52 AM WET 6:42 PM WET
Moon 6:13 AM WET (12/12) 4:32 PM WET (12/12)
Length of Visible Light 10h 43m
Length of Day
9h 46m
Waning Crescent, 1% of the Moon is Illuminated
Dec 12
Waning Crescent
Dec 13
New
Dec 20
First Quarter
Dec 28
Full
Jan 5
Last Quarter

Hourly Weather History & Observations

Time (WET) Temp. Dew Point Humidity Pressure Visibility Wind Dir Wind Speed Gust Speed Precip Events Conditions
12:00 AM 50 °F 47 °F 87% 30.07 in 3 mi East 2.3 mph - -   Partly Cloudy
12:00 AM 50.0 °F 48.2 °F 94% 30.06 in 3.1 mi Variable 2.3 mph - N/A   Scattered Clouds
12:30 AM 48.2 °F 46.4 °F 93% 30.04 in 3.1 mi ENE 3.5 mph - N/A   Scattered Clouds
1:00 AM 50.0 °F 46.4 °F 87% 30.04 in - ENE 1.2 mph - N/A   Scattered Clouds
1:30 AM 50.0 °F 48.2 °F 94% 30.04 in - East 3.5 mph - N/A   Scattered Clouds
2:00 AM 50.0 °F 48.2 °F 94% 30.04 in 1.7 mi Variable 1.2 mph - N/A   Unknown
2:30 AM 50.0 °F 48.2 °F 94% 30.04 in 1.8 mi ESE 4.6 mph - N/A   Unknown
3:00 AM 49 °F 47 °F 92% 30.04 in 2 mi ESE 4.6 mph - -  
3:00 AM 50.0 °F 48.2 °F 94% 30.01 in 1.9 mi ESE 4.6 mph - N/A   Unknown
3:30 AM 50.0 °F 48.2 °F 94% 30.01 in - ESE 4.6 mph - N/A   Unknown
4:00 AM 48.2 °F 46.4 °F 93% 30.01 in - ESE 5.8 mph - N/A   Unknown
4:30 AM 48.2 °F 46.4 °F 93% 30.01 in 2.2 mi ESE 4.6 mph - N/A   Unknown
5:00 AM 50.0 °F 48.2 °F 94% 30.01 in - East 4.6 mph - N/A   Unknown
5:30 AM 50.0 °F 48.2 °F 94% 30.01 in - East 3.5 mph - N/A   Unknown
6:00 AM 47 °F 45 °F 91% 30.01 in 4 mi East 3.5 mph - -   Partly Cloudy
6:00 AM 48.2 °F 44.6 °F 87% 30.01 in 3.7 mi East 3.5 mph - N/A   Scattered Clouds
6:30 AM 46.4 °F 44.6 °F 93% 30.01 in 3.7 mi Variable 2.3 mph - N/A   Scattered Clouds
7:00 AM 50.0 °F 48.2 °F 94% 30.01 in 3.7 mi East 4.6 mph - N/A   Scattered Clouds
7:30 AM 50.0 °F 48.2 °F 94% 30.01 in 3.7 mi East 4.6 mph - N/A   Scattered Clouds
8:00 AM 50.0 °F 48.2 °F 94% 30.01 in 3.7 mi East 3.5 mph - N/A   Mostly Cloudy
8:30 AM 51.8 °F 50.0 °F 94% 30.01 in 5.0 mi East 5.8 mph - N/A   Mostly Cloudy
9:00 AM 52 °F 50 °F 89% 30.04 in 5 mi East 4.6 mph - -   Partly Cloudy
9:00 AM 51.8 °F 50.0 °F 94% 30.04 in 5.0 mi East 4.6 mph - N/A   Mostly Cloudy
9:30 AM 53.6 °F 50.0 °F 88% 30.04 in 5.0 mi East 3.5 mph - N/A   Mostly Cloudy
10:00 AM 53.6 °F 51.8 °F 94% 30.04 in 5.0 mi East 4.6 mph - N/A   Mostly Cloudy
10:30 AM 55.4 °F 51.8 °F 88% 30.04 in 5.0 mi East 5.8 mph - N/A   Mostly Cloudy
11:00 AM 57.2 °F 51.8 °F 82% 30.04 in 5.0 mi ESE 3.5 mph - N/A   Mostly Cloudy
11:30 AM 59.0 °F 53.6 °F 82% 30.04 in 5.0 mi East 4.6 mph - N/A   Mostly Cloudy
12:00 PM 60 °F 52 °F 66% 30.04 in 5 mi East 3.5 mph - -   Partly Cloudy
12:00 PM 59.0 °F 51.8 °F 77% 30.01 in 5.0 mi East 3.5 mph - N/A   Mostly Cloudy
12:30 PM 62.6 °F 51.8 °F 68% 30.01 in 5.0 mi Variable 2.3 mph - N/A   Mostly Cloudy
1:30 PM 60.8 °F 53.6 °F 77% 29.98 in 5.0 mi West 5.8 mph - N/A   Mostly Cloudy
2:00 PM 60.8 °F 51.8 °F 72% 29.98 in 5.0 mi West 4.6 mph - N/A   Mostly Cloudy
2:30 PM 60.8 °F 51.8 °F 72% 29.98 in 5.0 mi West 3.5 mph - N/A   Mostly Cloudy
3:00 PM 61 °F 54 °F 70% 29.99 in 5 mi WNW 3.5 mph - -   Partly Cloudy
3:00 PM 60.8 °F 53.6 °F 77% 29.98 in 5.0 mi WNW 3.5 mph - N/A   Mostly Cloudy
3:30 PM 60.8 °F 53.6 °F 77% 29.98 in 5.0 mi WNW 5.8 mph - N/A   Mostly Cloudy
4:00 PM 59.0 °F 53.6 °F 82% 29.98 in 5.0 mi WNW 3.5 mph - N/A   Mostly Cloudy
4:30 PM 59.0 °F 53.6 °F 82% 29.98 in 5.0 mi NW 2.3 mph - N/A   Mostly Cloudy
5:00 PM 59.0 °F 53.6 °F 82% 29.98 in 5.0 mi Calm Calm - N/A   Mostly Cloudy
5:30 PM 57.2 °F 51.8 °F 82% 29.98 in 5.0 mi Calm Calm - N/A   Mostly Cloudy
6:00 PM 56 °F 52 °F 80% 30.00 in 5 mi NE 3.5 mph - -   Partly Cloudy
6:00 PM 55.4 °F 51.8 °F 88% 29.98 in 5.0 mi NE 3.5 mph - N/A   Mostly Cloudy
6:30 PM 55.4 °F 51.8 °F 88% 29.98 in 5.0 mi Calm Calm - N/A   Mostly Cloudy
7:00 PM 55.4 °F 51.8 °F 88% 29.98 in 5.0 mi Variable 2.3 mph - N/A   Mostly Cloudy
7:30 PM 53.6 °F 50.0 °F 88% 30.01 in 5.0 mi ENE 2.3 mph - N/A   Mostly Cloudy
8:00 PM 53.6 °F 50.0 °F 88% 30.01 in 5.0 mi Variable 1.2 mph - N/A   Mostly Cloudy
8:30 PM 51.8 °F 48.2 °F 88% 30.01 in 5.0 mi Calm Calm - N/A   Mostly Cloudy
9:00 PM 52 °F 49 °F 87% 30.02 in 5 mi ENE 3.5 mph - -   Partly Cloudy
9:00 PM 51.8 °F 50.0 °F 94% 30.01 in 5.0 mi ENE 3.5 mph - N/A   Mostly Cloudy
9:30 PM 51.8 °F 48.2 °F 88% 30.01 in 5.0 mi East 2.3 mph - N/A   Mostly Cloudy
10:00 PM 51.8 °F 48.2 °F 88% 30.01 in 5.0 mi Variable 2.3 mph - N/A   Mostly Cloudy
10:30 PM 51.8 °F 48.2 °F 88% 30.01 in 5.0 mi ENE 2.3 mph - N/A   Mostly Cloudy
11:00 PM 51.8 °F 48.2 °F 88% 30.01 in 5.0 mi Variable 2.3 mph - N/A   Mostly Cloudy
11:30 PM 51.8 °F 48.2 °F 88% 30.01 in 5.0 mi East 2.3 mph - N/A   Mostly Cloudy